Regional Weather Roundup
Issued by NWS

Home | Current Version | Previous Version | Graphics & Text | Print | Product List | Glossary On
Versions: 1 2 3 4 5 6 7 8 9 10 11 12 13 14 15 16 17 18 19 20 21 22 23 24 25 26 27 28 29 30 31 32 33 34 35 36 37 38 39 40 41 42 43 44 45 46 47 48 49 50
000
ASUS43 KLMK 290802
RWRKY
KENTUCKY REGIONAL WEATHER ROUNDUP
NATIONAL WEATHER SERVICE LOUISVILLE KY
400 AM EDT FRI AUG 29 2014

NOTE "FAIR" INDICATES FEW OR NO CLOUDS BELOW 12,000 FEET
WITH NO SIGNIFICANT WEATHER AND/OR OBSTRUCTIONS TO VISIBILITY.

KYZ001>023-026-027-061>063-070>075-290900-
WESTERN AND SOUTH CENTRAL KENTUCKY

CITY           SKY/WX    TMP DP  RH WIND       PRES   REMARKS
PADUCAH        CLEAR     73  70  90 CALM      29.96F FOG
HENDERSON      CLEAR     72  68  88 CALM      29.98S
OWENSBORO      PTCLDY    74  23  15 CALM      29.99F HAZE
HOPKINSVILLE   CLEAR     73  73 100 CALM      29.99S
BOWLING GREEN  PTCLDY    72  70  93 NE3       30.00F FOG
GLASGOW        CLEAR     72  72 100 CALM      30.01S FOG
$$

KYZ024-025-028>034-038-045-046-053-290900-
NORTH CENTRAL KENTUCKY

CITY           SKY/WX    TMP DP  RH WIND       PRES   REMARKS
LOUISVILLE/SDF PTCLDY    76  68  76 E3        30.02S
LOUISVILLE/LOU CLEAR     75  68  78 E3        30.03S
FORT KNOX      MOCLDY    73  70  89 NE5       30.01S
$$

KYZ035>037-039>044-047>052-055>060-089>105-290900-
NORTHEAST KENTUCKY

CITY           SKY/WX    TMP DP  RH WIND       PRES   REMARKS
LEXINGTON      PTCLDY    73  65  75 E6        30.06F
COVINGTON      MOCLDY    69  61  75 E6        30.07S
FRANKFORT      PTCLDY    70  65  84 E6        30.04S
$$

KYZ054-064>069-076>088-106>120-290900-
SOUTHEAST KENTUCKY

CITY           SKY/WX    TMP DP  RH WIND       PRES   REMARKS
JACKSON        CLEAR     68  62  81 NE3       30.08F
LONDON         CLEAR     71  67  87 NE3       30.06F
SOMERSET       PTCLDY    70  68  94 CALM      30.06S
MIDDLESBORO    PTCLDY    68  67  98 CALM      30.07F FOG
MONTICELLO     SUNNY     71  70  97 CALM      30.06S FOG
$$



USA.gov is the U.S. government's official web portal to all federal, state and local government web resources and services.